TimeHST,TemperatureF,Dew PointF,Humidity,Sea Level PressureIn,VisibilityMPH,Wind Direction,Wind SpeedMPH,Gust SpeedMPH,PrecipitationIn,Events,Conditions,WindDirDegrees,DateUTC
12:53 AM,64.0,59.0,84,29.99,10.0,West,4.6,-,N/A,,Clear,280,2013-05-20 10:53:00
1:53 AM,63.0,59.0,87,29.97,10.0,West,4.6,-,N/A,,Clear,280,2013-05-20 11:53:00
2:53 AM,63.0,57.9,84,29.96,10.0,West,4.6,-,N/A,,Clear,260,2013-05-20 12:53:00
3:53 AM,62.1,57.0,84,29.95,10.0,WNW,4.6,-,N/A,,Partly Cloudy,290,2013-05-20 13:53:00
4:53 AM,61.0,57.0,87,29.95,10.0,West,9.2,-,N/A,,Clear,280,2013-05-20 14:53:00
5:53 AM,61.0,55.9,83,29.96,10.0,West,9.2,-,N/A,,Clear,280,2013-05-20 15:53:00
6:53 AM,63.0,57.0,81,29.97,10.0,West,8.1,-,N/A,,Clear,280,2013-05-20 16:53:00
7:53 AM,70.0,59.0,68,29.98,10.0,West,3.5,-,N/A,,Clear,270,2013-05-20 17:53:00
8:53 AM,73.9,60.1,62,29.99,10.0,ENE,3.5,-,N/A,,Clear,60,2013-05-20 18:53:00
9:53 AM,75.0,62.1,64,29.99,10.0,Variable,4.6,-,N/A,,Clear,0,2013-05-20 19:53:00
10:53 AM,75.9,64.0,67,29.98,10.0,NE,10.4,-,N/A,,Mostly Cloudy,50,2013-05-20 20:53:00
11:53 AM,77.0,64.9,66,29.97,10.0,NE,13.8,-,N/A,,Mostly Cloudy,50,2013-05-20 21:53:00
12:53 PM,72.0,66.0,81,29.97,10.0,NNE,10.4,-,0.03,,Overcast,20,2013-05-20 22:53:00
1:53 PM,75.9,66.0,71,29.96,10.0,NNE,15.0,-,N/A,,Overcast,20,2013-05-20 23:53:00
2:53 PM,75.0,64.0,69,29.94,10.0,NE,13.8,-,N/A,,Mostly Cloudy,40,2013-05-21 00:53:00
3:53 PM,73.0,63.0,71,29.93,10.0,ENE,8.1,-,N/A,,Overcast,60,2013-05-21 01:53:00
4:32 PM,73.4,62.6,69,29.93,10.0,North,9.2,-,0.00,Rain,Light Rain,350,2013-05-21 02:32:00
4:41 PM,73.4,62.6,69,29.93,10.0,North,10.4,-,0.00,,Overcast,10,2013-05-21 02:41:00
4:53 PM,73.0,62.1,68,29.93,10.0,NNE,9.2,-,0.00,,Overcast,20,2013-05-21 02:53:00
5:32 PM,71.6,62.6,73,29.94,10.0,WNW,3.5,-,N/A,,Overcast,300,2013-05-21 03:32:00
5:50 PM,69.8,64.4,83,29.95,2.0,WSW,5.8,-,0.04,Rain,Rain,240,2013-05-21 03:50:00
5:53 PM,69.1,64.0,84,29.95,2.5,WSW,5.8,-,0.05,Rain,Rain,250,2013-05-21 03:53:00
6:00 PM,69.8,64.4,83,29.95,5.0,SW,4.6,-,0.00,Rain,Light Rain,230,2013-05-21 04:00:00
6:53 PM,68.0,64.0,87,29.96,5.0,WNW,10.4,-,0.00,,Overcast,300,2013-05-21 04:53:00
7:00 PM,68.0,64.4,88,29.97,10.0,WNW,8.1,-,N/A,,Overcast,290,2013-05-21 05:00:00
7:53 PM,66.9,64.0,90,29.98,10.0,West,10.4,-,0.00,,Overcast,270,2013-05-21 05:53:00
8:53 PM,66.9,63.0,87,29.99,10.0,WNW,10.4,-,N/A,,Overcast,290,2013-05-21 06:53:00
9:53 PM,66.9,63.0,87,30.01,10.0,West,6.9,-,N/A,,Overcast,260,2013-05-21 07:53:00
10:53 PM,66.0,63.0,90,30.01,10.0,West,8.1,-,0.00,,Overcast,280,2013-05-21 08:53:00
11:53 PM,66.0,63.0,90,29.99,10.0,West,6.9,-,N/A,,Mostly Cloudy,270,2013-05-21 09:53:00